Find Starlink 35947

NORAD ID: 66883 Int'l Des: 2025-283 Owner: SPXS Country: US Constellation: starlink operational
LEOCIRCULAR

リアルタイム位置

3D地球を読み込み中...

Starlink 35947について

説明を読み込み中...

次回通過

Passes for default location (London). Set your location on the main map for personalized predictions.

高度履歴

Loading altitude history...

軌道要素

1 66883U 25283F 26107.24739063 .00007919 00000-0 27919-3 0 9998
2 66883 53.1594 205.3459 0001377 90.0773 270.0386 15.30203910 21768
Epoch: Apr 17, 2026 • Age: 13 hours

現在のステータス

高度 475.2 km
速度 7.63 km/s
衛星直下点 19.49°N, 93.52°E
打ち上げ日 Dec 4, 2025
運用期間 0.3 years
タイプ internet

技術仕様

分類 Payload
質量 575.00 kg
乾燥質量 530.00 kg
総質量 575.00 kg
長さ 0.30 m
直径 4.10 m
スパン 29.00 m
形状 Box + pan
製造者 SPXS
バスタイプ Starlink V2MO
フェーズステータス In Orbit
所有者/国 SPXS/US

Most Searched